Theta_e
340 338 342 344 347 349 352 354 358 363 364 357 357 362 364 365 365 369 369 366 369 366 365 364 359 360 365 366 364 360 358 359 360 356 352 352 351 351 352 351 353 354 353 352 353 354 355 354 351 352 352 351 350 349 343 339 339 335 335 337 340 343 344 342 342 344 345 346 347 347 348 350 349 350 351 352 351 350 350 350 350 351 351 351 352 352 351 351 351 351 350 349 349 349 350 351 352
335 338 343 346 348 351 359 359 361 362 360 355 358 365 366 367 364 367 370 366 369 364 363 363 358 362 365 363 361 360 358 355 355 354 352 352 352 353 351 351 353 354 354 352 354 355 354 352 351 352 351 351 350 349 344 336 335 335 338 341 345 348 346 344 345 346 346 346 348 348 350 350 350 349 352 351 350 350 351 350 350 351 352 352 353 353 353 352 352 351 350 349 350 349 349 349 350
334 343 345 348 350 352 361 361 361 358 356 355 358 368 367 368 367 366 368 365 365 360 359 359 361 363 363 366 364 362 359 352 350 351 352 352 352 353 351 351 352 354 354 354 354 354 352 351 351 351 350 350 349 349 344 337 336 338 342 344 346 347 346 346 347 347 348 348 348 349 348 350 351 351 351 350 349 349 350 351 351 352 353 353 353 353 353 353 352 351 351 350 350 350 349 350 350
341 349 348 351 354 355 361 364 364 358 356 355 357 366 367 366 366 365 366 364 362 358 357 359 364 361 362 367 360 358 357 351 351 351 352 352 352 352 351 352 353 354 354 354 353 352 351 350 350 350 349 350 348 346 343 338 339 342 344 345 346 346 347 349 348 347 348 349 348 348 348 349 351 351 350 350 349 350 351 352 352 353 353 353 352 352 353 353 352 351 351 351 351 351 351 351 351
346 349 347 351 357 359 364 366 365 361 358 360 360 366 366 364 364 363 364 363 360 358 357 359 363 359 358 360 356 359 355 351 352 351 352 351 352 352 352 352 353 354 355 354 352 351 350 350 351 351 351 348 345 343 340 339 342 344 344 346 347 349 350 350 348 347 348 348 348 348 349 349 351 351 351 351 351 351 352 352 352 353 352 353 353 352 352 351 351 350 350 350 352 351 351 351 351
348 349 349 352 355 357 363 362 361 360 361 368 367 367 366 364 363 363 363 361 359 360 360 358 359 358 357 354 354 358 353 352 353 351 353 352 352 352 352 352 353 354 354 354 352 351 350 350 352 353 353 349 342 342 342 344 345 345 346 348 350 351 351 349 348 347 347 348 349 350 350 350 352 352 352 352 352 352 352 351 352 353 352 352 352 352 351 350 350 349 350 350 350 351 351 351 351
349 353 354 356 357 357 363 361 359 361 365 368 368 368 365 364 363 362 364 360 358 359 362 359 354 358 360 355 354 354 352 353 353 352 353 352 352 352 352 352 353 354 353 353 351 350 350 351 353 354 354 351 347 346 347 346 346 346 348 351 351 351 350 349 348 348 348 350 350 351 351 352 353 353 352 352 352 352 351 351 352 352 353 352 353 352 351 350 349 349 349 349 350 351 351 351 351
350 359 358 360 364 363 365 362 361 365 366 365 364 365 364 365 362 363 365 361 361 359 360 359 354 360 361 355 357 355 352 353 352 353 352 351 353 352 351 351 353 353 353 351 350 351 351 352 354 354 354 353 351 350 349 346 346 347 350 352 351 351 350 349 349 349 349 350 351 352 353 353 353 352 352 352 352 351 351 351 351 352 353 352 352 352 350 349 348 349 349 350 351 351 351 351 351
351 360 361 361 366 364 362 361 363 367 367 363 363 363 363 365 362 363 365 362 363 360 358 358 355 361 360 356 359 354 352 353 352 353 352 352 352 352 352 351 351 352 351 349 350 351 353 354 354 354 353 352 353 351 348 346 347 349 352 353 351 351 351 350 350 349 349 350 351 353 353 353 353 353 353 352 351 352 351 352 352 352 353 353 352 351 350 349 349 350 351 350 351 351 350 350 350
355 358 361 363 365 361 358 360 365 370 366 361 363 362 362 363 363 365 366 362 360 360 358 356 356 359 359 358 358 353 353 353 352 353 352 352 352 353 352 350 349 349 349 349 350 352 353 354 354 355 354 353 352 351 348 346 348 350 351 352 352 352 351 351 350 350 351 352 352 353 353 353 353 354 353 352 351 352 353 352 353 353 353 353 352 351 349 348 349 350 350 351 350 350 349 348 349
360 359 360 363 361 356 357 361 366 372 364 360 362 360 360 361 363 365 365 364 361 360 357 356 359 358 358 359 357 354 353 353 353 353 352 352 353 353 352 350 348 347 348 348 350 352 353 354 355 354 353 352 351 348 344 344 347 349 350 351 352 352 351 351 350 351 352 352 352 353 352 353 352 353 352 352 353 353 353 353 353 353 353 353 352 351 348 349 350 350 349 350 350 350 349 348 348
362 363 362 361 360 358 360 362 365 370 365 362 361 360 360 360 364 365 365 366 364 361 358 359 358 357 359 359 357 353 352 353 352 353 352 352 352 353 352 350 347 346 347 348 350 351 352 354 354 353 352 351 348 344 342 344 348 348 348 350 351 352 351 350 350 352 353 352 352 352 352 352 352 353 353 352 353 352 352 353 353 353 352 352 352 350 348 349 350 349 349 350 349 350 349 348 349
361 365 364 362 364 364 365 365 368 369 366 365 362 360 360 361 364 365 366 364 364 362 359 359 356 357 359 357 356 352 352 353 352 352 352 352 353 353 352 350 348 347 347 349 350 351 352 353 352 352 350 347 345 344 345 347 349 348 349 350 350 350 350 350 350 350 352 352 351 351 351 351 351 352 352 352 353 352 351 352 352 352 351 351 350 349 348 349 349 349 350 350 350 350 348 349 349
359 363 364 365 368 369 368 368 370 367 365 365 362 360 360 363 363 364 367 364 366 364 358 356 354 358 358 357 357 353 353 353 352 352 353 353 353 352 351 351 349 348 348 350 351 351 352 352 351 349 347 345 346 348 349 350 349 349 350 350 350 349 350 349 348 349 351 351 351 351 352 352 351 351 351 352 353 352 351 351 351 350 350 350 348 348 348 347 349 350 351 351 350 350 349 349 349
358 363 364 366 366 367 369 369 369 366 366 365 361 361 362 364 362 365 367 365 367 361 355 354 353 361 359 358 358 353 352 352 352 352 353 353 353 352 351 352 351 350 350 351 350 351 351 350 349 348 347 348 349 351 350 350 350 350 350 350 350 349 349 348 348 350 351 351 351 351 352 352 350 350 351 352 353 351 350 350 350 348 349 350 349 347 346 346 348 350 349 351 350 350 349 349 348
359 363 365 366 363 364 370 371 370 369 368 366 362 362 364 363 362 365 364 364 364 360 361 356 353 362 357 354 355 351 352 351 352 352 353 353 352 353 352 352 352 351 351 350 350 350 351 349 348 349 350 350 350 351 350 351 351 350 350 350 350 348 349 349 350 351 351 351 352 353 352 352 351 350 351 352 353 350 348 349 348 348 349 350 348 346 345 345 347 349 349 351 351 350 350 350 349
359 362 365 364 362 364 370 372 370 369 368 367 364 364 366 365 363 362 361 362 364 363 365 359 353 356 353 352 352 350 351 351 352 352 353 352 352 352 353 353 352 351 350 350 350 350 351 350 350 351 351 350 350 350 350 351 351 350 350 350 349 349 349 350 351 352 353 352 353 353 353 353 351 351 351 352 352 349 348 349 348 348 349 348 347 346 346 344 347 349 349 350 351 351 351 351 350
358 363 365 362 364 367 370 371 367 366 367 366 365 364 366 367 364 362 362 363 363 364 364 362 356 352 352 352 351 350 351 352 352 352 352 350 351 352 352 352 352 351 351 350 351 351 351 351 351 351 350 350 350 350 351 352 352 352 351 350 349 350 351 351 352 353 353 353 353 353 353 353 352 351 351 350 351 349 348 348 347 348 348 348 347 347 346 344 346 348 350 351 351 351 350 351 351
358 365 366 364 369 370 370 371 367 366 367 365 365 365 366 366 364 363 366 365 363 365 366 362 356 353 353 351 350 351 352 352 352 351 351 350 350 351 351 352 352 351 351 351 352 353 352 351 351 351 351 350 350 351 352 353 353 353 352 350 350 351 352 352 353 354 353 352 352 352 352 352 351 350 349 350 350 350 348 347 346 347 347 348 348 348 346 344 345 348 351 351 351 350 350 350 350
358 362 366 367 368 366 368 371 369 368 365 364 366 365 365 364 364 364 367 365 365 366 365 361 356 355 353 350 351 351 352 352 352 351 351 350 350 350 351 351 352 352 352 352 352 353 352 351 351 350 350 350 351 352 354 354 353 353 352 351 351 352 352 353 354 353 353 352 351 351 351 351 350 350 350 350 350 349 348 348 347 347 347 347 347 347 345 346 345 346 350 350 349 349 349 348 348
358 359 364 365 362 362 368 369 366 364 361 365 365 365 366 363 364 365 366 366 367 365 362 358 355 354 353 351 351 351 352 351 351 352 351 350 349 350 351 351 351 352 353 353 353 352 351 351 351 350 350 351 352 353 354 354 353 352 352 352 352 352 352 352 352 352 351 350 350 350 350 350 350 350 351 350 349 349 349 348 348 346 345 346 345 344 344 344 343 344 347 348 347 348 349 348 347
358 358 359 358 357 363 368 364 362 360 361 365 365 367 366 362 364 364 364 367 369 365 362 359 353 352 352 350 350 351 350 351 352 352 351 350 350 351 351 351 352 352 353 353 353 352 351 351 351 350 350 352 353 353 354 353 353 352 352 352 351 351 351 350 350 349 348 348 347 348 348 349 349 350 351 350 348 348 347 347 346 344 343 343 343 342 342 342 342 343 345 345 346 348 349 350 349
355 355 354 355 354 361 366 359 359 361 363 365 365 365 364 364 367 364 364 367 366 364 363 360 353 350 352 350 350 350 349 350 351 352 351 350 350 351 352 352 353 353 353 353 353 352 351 351 351 351 352 353 353 354 354 352 352 351 351 351 349 348 349 348 347 347 348 348 347 346 347 348 349 349 350 349 348 347 347 345 344 343 343 343 344 344 343 344 345 346 346 346 347 349 350 350 350
350 352 351 352 352 360 363 359 360 362 363 365 364 363 363 366 368 364 364 364 361 362 363 359 353 350 351 350 349 349 349 350 351 351 351 350 350 351 351 352 352 352 353 353 352 352 352 352 352 351 352 353 353 353 352 351 351 350 350 350 347 346 346 346 346 347 348 349 348 346 347 347 347 348 348 348 347 347 346 344 343 343 345 347 347 348 348 348 349 348 348 349 349 349 350 349 349
346 349 348 346 351 359 362 361 360 360 362 363 362 363 365 366 366 365 364 361 359 360 360 358 356 351 350 350 349 349 349 350 351 351 351 350 350 350 351 351 351 353 353 352 352 352 351 352 352 352 352 353 352 352 351 351 351 351 350 348 346 345 345 346 346 347 347 348 349 349 346 343 343 344 346 347 346 345 344 342 342 345 347 347 348 349 349 350 349 349 349 349 350 350 350 350 349
344 343 344 341 345 358 361 362 361 360 362 361 364 365 367 366 363 365 363 360 360 359 358 359 358 352 349 350 349 348 348 349 350 350 351 350 350 351 350 351 352 352 352 351 351 351 351 352 352 351 351 352 352 351 349 349 350 350 349 347 346 346 345 346 347 347 347 348 349 349 347 342 342 344 347 349 348 345 343 341 342 344 346 347 348 348 349 349 349 349 349 350 350 350 350 350 349
340 338 340 334 340 358 360 362 362 361 362 361 364 368 367 362 364 368 362 358 360 360 358 358 358 353 349 349 348 348 347 348 349 349 350 350 350 350 350 351 352 352 352 351 350 350 351 353 353 352 350 351 351 350 348 349 349 349 348 348 347 347 347 348 348 348 348 349 349 349 349 346 345 347 349 349 349 348 346 344 343 345 346 347 348 349 348 349 350 350 351 351 349 349 348 349 348
335 335 333 333 347 360 359 361 361 361 362 361 362 366 366 363 367 370 360 356 357 358 358 357 357 354 349 348 348 348 347 347 349 349 349 349 350 350 350 351 352 353 352 350 350 350 351 353 354 353 351 350 350 349 347 348 348 348 349 349 348 348 348 349 349 349 349 349 350 350 350 349 348 348 349 349 349 349 348 348 347 347 347 348 349 349 349 349 351 352 352 352 349 348 347 347 347
333 329 328 346 364 364 359 360 360 361 361 359 360 361 365 365 367 365 357 355 355 355 357 355 355 354 350 347 347 347 346 347 348 348 348 349 349 350 350 351 352 353 353 351 350 351 352 354 354 354 351 348 348 348 347 346 346 348 349 349 349 348 349 349 349 348 348 350 350 351 351 351 350 348 348 348 348 348 348 349 348 349 349 349 350 350 350 350 351 352 352 352 350 348 348 347 346
332 328 330 354 370 364 363 362 358 361 359 358 357 356 363 366 363 361 357 355 355 355 356 354 354 352 350 348 346 348 346 346 347 347 348 348 349 349 350 351 352 353 354 353 352 353 353 354 355 354 351 349 348 346 346 345 346 348 349 350 349 348 349 349 348 347 348 350 350 351 352 352 350 349 348 348 349 349 349 349 349 350 349 351 351 351 350 350 351 352 351 352 350 349 348 347 347
330 330 327 348 364 363 364 361 360 364 359 359 355 352 362 366 361 359 356 356 356 356 355 354 353 351 349 348 347 346 346 346 346 347 348 348 348 349 350 351 352 353 353 354 353 353 354 354 354 354 352 350 348 347 346 344 345 348 350 351 350 348 348 348 348 347 348 350 351 351 351 351 350 349 348 349 350 350 349 350 350 350 350 351 351 351 350 350 350 352 351 351 350 350 349 347 346
333 327 322 337 348 354 365 361 360 366 361 360 354 353 363 363 360 360 356 357 358 355 355 354 353 352 350 349 347 346 346 346 346 347 347 348 348 348 349 351 352 353 353 354 354 354 354 354 354 354 353 351 349 347 346 345 348 350 351 352 351 350 349 348 348 348 348 349 350 350 350 350 350 349 349 349 351 351 350 350 351 351 350 351 351 351 351 351 350 350 350 350 349 350 348 345 344
339 327 321 325 324 341 365 362 358 362 362 362 358 360 368 362 359 360 357 358 358 356 355 354 353 353 351 349 348 346 345 345 346 346 347 347 348 348 349 351 351 352 353 354 353 354 354 354 354 354 354 352 350 348 348 349 351 351 352 352 351 351 349 349 349 348 348 348 348 349 350 350 350 350 349 350 351 352 351 351 351 352 351 351 350 350 350 351 350 350 350 349 349 349 348 346 344
335 329 323 322 321 340 359 359 358 359 362 365 362 365 368 361 360 360 359 358 358 358 356 355 353 352 352 350 349 347 346 346 345 346 347 347 348 347 349 350 351 352 352 353 354 354 353 354 354 354 354 352 350 350 350 352 352 352 352 351 351 350 349 349 348 348 349 349 348 348 349 350 350 350 350 350 351 351 352 351 351 352 352 351 350 349 349 351 351 350 349 349 349 349 348 347 345
329 326 323 322 322 333 346 355 362 359 362 366 362 366 365 360 360 360 359 358 358 359 357 355 354 353 352 350 351 349 347 347 345 345 346 347 348 347 348 349 350 351 352 353 353 354 353 353 354 353 353 352 351 351 352 352 352 352 351 351 351 350 350 349 348 348 350 350 348 348 348 349 350 351 350 350 350 352 352 352 353 352 352 351 349 348 349 351 351 350 350 350 349 349 348 347 346
328 325 323 322 319 321 331 346 357 358 363 366 363 363 363 360 360 359 359 358 359 360 357 356 354 353 353 351 352 350 349 347 346 345 346 347 347 347 348 349 350 350 351 353 353 354 354 353 353 353 352 352 352 352 352 352 352 352 351 351 351 350 350 350 348 348 351 351 350 350 348 348 350 350 351 351 351 352 352 351 352 351 351 350 349 348 349 350 352 350 350 350 350 349 348 347 346
328 326 324 324 321 322 325 330 350 362 361 363 363 362 362 360 359 359 359 359 360 360 359 357 356 355 353 353 353 352 350 348 346 345 345 346 347 347 348 349 349 350 351 352 353 354 354 353 353 353 352 352 353 352 352 352 352 351 350 349 349 349 349 349 348 348 351 352 352 352 350 350 350 350 351 353 352 351 351 351 352 351 351 351 350 348 348 349 351 352 352 351 350 349 348 347 344
327 326 325 324 323 324 326 324 342 361 359 358 361 359 359 358 358 360 359 358 361 360 358 357 357 356 354 353 353 353 351 349 348 347 344 345 347 347 348 349 350 350 351 351 353 354 353 353 353 351 351 352 352 352 352 352 351 349 349 348 348 348 349 349 349 349 351 353 353 353 352 351 351 350 351 352 352 351 350 351 351 351 352 351 350 349 349 349 350 351 352 352 351 349 348 347 344
327 326 323 323 323 324 328 325 332 351 357 358 359 358 360 360 359 361 361 359 360 359 358 356 356 357 356 355 354 354 353 352 350 348 345 344 346 347 347 348 349 349 351 351 352 353 353 352 352 351 350 352 352 352 352 350 350 350 349 348 347 348 349 350 350 350 353 353 352 352 352 352 351 350 351 351 351 350 350 351 350 352 353 351 350 349 348 348 348 350 352 353 352 350 350 348 347
327 326 322 321 323 321 322 325 332 349 356 359 361 361 364 367 363 362 361 360 359 358 358 357 356 356 355 355 354 354 354 353 351 350 347 344 344 347 347 347 349 349 350 350 351 352 352 352 352 351 350 351 352 351 350 349 348 348 348 347 347 348 348 349 351 352 353 353 352 352 352 351 350 349 350 351 351 350 350 351 351 353 354 351 350 349 348 347 349 351 353 354 353 352 351 350 348
327 327 324 322 324 322 321 323 328 339 343 354 365 359 359 367 365 364 363 360 360 359 358 357 355 354 354 355 354 353 353 353 352 351 349 345 343 346 347 347 348 349 349 350 350 350 351 352 351 352 351 351 352 351 350 348 348 348 348 347 347 347 346 349 353 354 354 354 353 352 351 350 349 348 349 352 352 351 351 351 352 353 353 352 352 350 349 349 349 352 354 354 353 352 352 351 350
326 327 327 325 325 326 324 322 321 321 323 340 358 350 352 365 365 365 364 362 362 359 359 358 356 354 354 354 354 353 353 354 352 351 350 346 343 344 346 346 347 348 348 349 350 350 350 351 351 353 352 351 352 351 350 349 348 348 347 347 346 346 347 349 352 354 354 355 353 352 350 349 349 347 349 352 352 352 352 352 353 354 354 353 353 351 350 350 350 350 351 353 353 353 352 352 352
323 327 328 325 326 325 322 322 318 315 320 337 351 346 350 359 361 364 365 364 363 360 359 358 356 355 354 353 353 353 353 353 352 351 351 347 344 344 345 346 346 347 348 349 349 349 350 350 351 352 352 352 352 350 350 348 348 347 347 347 346 345 347 349 350 351 352 353 353 353 351 349 350 348 347 349 350 352 354 353 352 354 354 353 353 352 352 352 351 350 349 352 354 354 353 352 352
323 328 326 324 325 322 321 321 316 319 331 340 340 346 352 355 358 363 366 365 364 362 360 358 356 356 354 354 352 352 352 352 352 351 351 349 344 344 345 345 346 346 347 348 348 348 350 350 351 352 351 351 352 350 349 349 348 347 347 347 347 344 346 348 349 349 350 351 351 353 352 350 350 348 347 348 349 351 355 354 352 354 354 354 354 353 353 352 351 351 350 352 354 354 352 352 350
325 326 324 323 323 322 324 321 318 326 339 338 333 337 345 348 357 364 364 366 365 364 362 358 358 355 355 354 352 351 352 351 352 352 351 349 345 344 345 344 345 346 347 347 347 348 349 350 350 351 351 351 351 351 349 349 348 347 347 348 347 345 345 347 349 349 349 350 350 352 352 351 350 350 348 349 348 349 353 354 354 354 354 354 354 354 354 353 352 352 351 351 354 353 353 353 350
326 324 324 324 323 328 329 326 323 325 334 336 332 330 331 334 348 361 362 362 363 364 363 358 358 357 355 355 352 351 352 351 351 351 351 350 347 344 344 344 345 345 346 346 347 348 349 350 350 350 350 351 351 351 350 349 348 348 347 347 347 346 345 347 349 349 350 351 351 351 352 351 352 351 349 349 349 348 351 354 355 355 355 354 355 355 354 354 353 352 352 351 353 352 353 354 351
323 324 324 321 326 333 337 343 333 320 325 333 329 326 324 321 335 355 361 360 363 363 363 360 358 357 356 355 354 352 352 352 351 351 350 350 348 346 344 344 344 344 345 345 346 347 348 350 350 350 350 350 350 351 350 350 349 348 347 346 348 347 345 346 348 350 351 353 352 351 352 351 353 353 351 349 349 349 351 354 354 355 356 355 355 356 355 354 354 353 352 353 353 352 352 354 353
322 326 324 319 326 329 328 335 326 314 323 333 327 321 317 315 326 350 360 360 362 360 361 361 359 358 357 355 354 353 352 352 352 350 350 349 348 347 345 344 344 343 344 344 346 347 348 349 350 349 349 349 350 351 351 350 349 348 347 347 347 347 346 345 348 350 351 352 352 351 351 351 352 353 353 352 351 351 352 354 353 354 356 355 355 356 355 355 354 354 353 353 354 354 353 353 354
320 326 323 316 322 323 320 325 322 318 323 326 324 317 313 315 324 344 358 358 358 359 358 358 358 358 358 356 356 354 353 351 352 351 350 350 349 347 346 345 344 344 343 344 345 346 348 349 349 350 349 350 349 350 350 350 349 348 348 348 348 348 346 345 347 349 350 350 351 350 351 351 352 353 354 353 352 353 353 353 354 355 355 355 354 355 356 355 355 355 354 354 354 355 353 352 353
320 322 320 317 319 319 319 325 323 320 321 319 321 318 314 317 324 339 356 355 355 356 355 356 355 357 356 356 356 355 354 353 351 352 351 350 350 348 347 346 345 345 343 343 345 345 347 348 349 350 350 350 349 350 350 350 349 349 348 348 348 347 346 345 346 347 348 350 350 350 350 350 351 352 352 351 350 353 353 353 354 355 355 355 354 354 355 355 356 356 355 354 354 354 353 352 353
322 324 323 321 324 322 322 325 321 319 321 319 317 317 317 317 323 336 341 344 352 353 354 354 353 355 355 355 357 356 355 354 352 352 352 350 350 348 348 347 346 345 343 343 344 345 347 348 349 349 349 349 350 350 350 350 349 349 349 349 348 348 346 345 346 346 348 349 349 349 348 349 350 350 350 347 347 351 354 353 353 354 355 354 353 353 354 355 356 356 355 355 354 354 355 354 354
323 325 320 317 323 327 323 323 325 323 321 320 318 319 325 325 326 335 330 331 344 350 354 356 352 353 355 356 358 357 356 354 352 352 351 351 350 348 348 348 347 347 344 343 343 344 346 347 349 349 349 350 349 350 350 350 350 349 349 349 348 348 346 346 346 347 347 348 348 347 347 348 349 349 348 347 347 350 353 354 353 353 354 354 353 352 353 355 356 355 354 354 354 355 356 356 356
323 320 316 315 318 325 321 319 328 325 316 321 322 318 327 329 324 332 335 334 339 343 349 353 352 354 354 357 358 357 356 355 353 352 352 351 350 349 349 348 348 348 346 344 344 343 345 347 348 349 349 350 349 350 350 350 350 349 349 349 348 348 347 346 346 346 346 346 347 347 346 346 348 349 348 346 347 349 352 354 354 354 353 354 353 352 351 354 355 355 355 354 354 354 355 355 355
320 316 316 319 317 323 325 321 325 323 317 323 323 316 323 326 322 331 344 343 342 341 342 344 350 354 353 356 357 357 356 355 354 354 352 351 350 349 350 348 348 349 347 346 344 344 345 347 348 348 348 350 350 350 350 350 350 349 349 349 348 348 347 346 346 345 346 346 346 346 346 346 347 348 347 346 347 348 351 353 353 353 354 353 354 352 352 353 354 354 354 354 354 354 354 354 355
316 315 318 321 317 320 325 320 320 322 321 323 321 319 323 325 327 333 340 345 346 345 342 339 343 351 354 355 356 358 357 356 355 354 353 351 350 349 350 348 349 349 348 348 346 345 344 345 348 348 348 348 349 350 350 350 350 350 349 349 349 347 346 346 347 347 347 346 345 346 345 345 345 345 346 346 347 347 349 352 353 353 353 354 354 353 353 354 355 354 354 354 354 354 354 354 355
316 315 315 318 319 318 319 319 321 322 324 324 321 322 325 330 335 333 334 344 348 346 347 343 339 344 351 353 355 357 357 356 355 353 352 352 350 350 350 349 349 349 349 348 347 346 345 345 347 348 348 349 349 350 350 350 349 349 350 349 349 348 347 346 347 347 347 346 345 345 344 344 344 344 344 344 346 347 348 350 351 352 353 353 353 353 353 354 355 355 354 355 355 354 354 354 354
315 316 313 314 318 318 318 319 319 321 327 329 326 326 330 337 337 327 329 343 348 345 347 346 341 340 345 350 353 356 357 356 354 353 352 351 350 350 350 349 350 349 349 349 348 347 346 346 346 347 348 348 348 349 350 350 350 349 349 349 349 349 347 347 347 347 346 345 345 345 342 343 344 344 344 343 345 346 348 348 349 350 351 351 352 352 353 353 354 355 356 355 355 355 355 354 354
314 314 314 312 314 318 322 324 323 321 322 324 325 324 330 340 332 322 328 340 346 344 342 345 346 343 343 347 350 354 356 356 354 352 351 351 351 350 350 350 350 349 350 350 349 349 348 347 347 347 348 348 348 349 350 350 349 349 349 348 348 348 347 346 346 347 346 344 344 343 343 344 345 345 344 344 343 345 347 348 348 349 349 349 351 351 352 352 352 354 354 355 355 355 355 355 354
Wind_Speed
8 12 15 15 13 8 3 1 1 1 0 1 2 2 2 1 1 2 2 1 1 2 1 2 5 5 3 2 4 4 4 2 2 3 2 4 20 26 20 23 25 24 24 24 24 23 21 21 21 20 20 20 19 18 19 20 20 20 19 17 16 14 14 13 13 13 13 13 13 12 12 11 11 10 10 10 10 11 11 11 11 11 11 11 11 12 12 13 12 12 13 13 13 13 13 13 13
12 17 16 14 10 4 0 1 2 1 1 2 2 2 1 1 1 3 3 2 1 3 3 3 5 5 4 3 2 3 5 5 2 3 3 15 24 20 22 27 26 26 25 24 24 23 22 22 21 21 20 20 19 18 18 19 20 19 18 16 15 14 13 12 12 12 12 12 12 12 12 11 10 10 10 9 10 10 11 12 12 12 11 11 11 11 12 13 12 12 12 13 13 13 13 13 13
17 20 17 12 4 1 1 1 1 1 1 2 2 1 1 1 3 4 3 1 2 4 4 3 4 3 3 4 3 2 3 4 5 6 7 19 18 17 27 28 27 28 26 26 24 23 23 22 22 21 21 20 19 18 18 19 19 18 16 15 14 13 12 12 11 12 12 11 11 10 11 11 10 9 9 9 10 11 12 12 12 11 11 11 11 11 12 13 13 12 12 13 13 13 13 13 13
20 19 15 9 1 1 1 1 1 1 2 2 2 1 1 0 3 3 3 2 2 4 3 3 4 3 3 3 3 4 4 4 7 6 9 15 17 24 29 27 29 27 27 26 24 24 23 23 22 21 21 19 18 18 18 19 18 16 15 14 13 12 12 11 11 12 12 10 10 9 10 10 9 9 9 9 10 11 12 12 11 11 10 11 11 11 12 12 13 12 12 12 13 13 13 13 13
18 14 10 3 1 0 1 0 1 1 2 1 1 1 2 2 4 3 2 0 1 4 4 3 3 2 2 2 2 2 5 7 6 6 11 15 22 31 29 28 29 27 27 26 25 24 23 23 22 22 21 19 19 19 19 18 17 15 14 13 12 11 11 11 11 11 11 10 10 9 9 9 9 9 9 10 11 11 11 11 11 10 10 11 11 11 12 13 12 12 12 12 12 12 12 13 13
14 9 5 2 1 1 0 1 2 3 3 2 1 1 3 4 5 4 3 1 3 4 4 3 3 5 2 2 3 3 7 8 6 8 15 20 28 31 29 30 28 27 27 25 26 24 24 23 22 22 20 19 20 19 18 17 16 15 13 12 11 11 12 12 11 11 10 10 10 9 9 9 9 9 9 10 10 11 11 11 11 10 11 11 10 11 12 12 12 12 11 12 12 12 12 13 13
11 6 2 1 0 1 1 2 3 4 3 3 2 2 4 4 5 5 4 2 4 5 3 3 4 7 3 2 3 4 8 9 7 11 19 26 30 30 29 29 27 26 26 26 25 24 24 22 21 21 20 19 19 19 18 16 15 14 13 12 11 12 12 12 12 10 10 10 10 9 9 9 9 9 9 10 11 12 12 11 11 11 10 10 11 11 11 11 11 11 11 11 11 11 12 13 13
6 3 1 1 0 1 1 3 3 3 1 2 2 2 4 5 6 6 5 1 2 2 2 3 4 4 3 4 4 5 11 11 10 17 26 30 30 29 29 29 27 26 26 26 24 23 22 21 20 19 19 19 18 18 17 16 15 14 13 12 12 13 13 12 12 11 10 11 10 9 8 8 9 9 9 10 11 11 12 11 11 10 10 11 11 11 11 11 11 11 11 11 11 11 11 12 13
2 0 0 0 0 1 1 4 3 3 1 0 1 1 3 5 6 6 7 3 2 4 5 4 4 2 5 7 6 5 11 15 18 23 28 30 29 27 27 28 28 27 26 26 24 23 21 19 19 19 19 18 18 18 16 16 15 14 12 12 12 13 12 12 12 12 11 11 10 9 8 8 9 9 9 10 10 11 11 11 10 10 10 11 11 11 11 11 10 10 11 11 11 11 11 12 12
0 0 0 1 0 1 3 3 3 2 0 1 1 3 3 3 4 4 7 7 6 6 7 6 2 6 8 8 5 4 13 22 25 24 26 28 26 24 25 27 28 28 27 26 24 22 20 18 18 18 18 18 18 17 16 15 14 14 12 12 12 12 11 11 12 12 11 10 9 9 8 8 8 9 9 10 10 10 10 10 10 10 10 10 11 11 11 10 10 10 11 12 12 13 12 12 12
1 1 0 1 0 1 3 3 4 2 1 1 1 3 4 3 2 4 6 6 6 7 10 8 6 9 10 6 3 9 21 25 24 23 25 26 23 22 24 25 27 27 27 26 24 22 19 18 17 17 18 17 17 15 15 15 14 13 13 12 11 11 11 11 12 11 10 10 10 9 9 9 8 9 10 10 9 9 10 10 9 9 9 10 10 11 11 10 10 10 11 12 12 13 12 12 12
1 1 1 1 1 2 3 3 4 3 1 1 1 3 4 4 1 3 6 4 5 7 8 7 7 8 9 5 3 14 23 22 22 25 25 24 22 22 23 24 26 26 26 26 24 22 19 18 17 17 16 15 14 14 15 15 14 13 13 12 11 12 12 11 11 11 10 10 10 10 9 9 9 8 9 10 9 9 10 10 9 9 9 10 10 10 10 10 10 11 11 12 12 12 12 12 12
0 2 2 1 2 2 3 3 3 2 1 1 2 2 3 5 3 3 5 4 4 6 5 6 9 6 6 6 6 12 16 20 24 25 23 22 21 22 22 23 25 25 25 24 23 21 19 18 17 16 15 14 14 14 14 15 14 13 13 12 12 12 11 11 12 12 11 11 11 10 10 9 9 8 9 9 9 9 9 9 9 9 9 9 10 10 9 9 9 10 11 11 11 11 11 12 11
2 1 2 1 1 2 2 2 2 1 1 1 2 3 2 3 4 4 3 4 2 2 5 8 9 8 7 6 7 7 12 23 26 24 23 22 22 22 22 22 23 24 24 23 22 21 19 18 17 16 15 14 14 14 14 14 14 14 13 13 12 12 11 12 13 13 11 11 11 11 10 9 9 9 9 8 8 9 9 8 8 9 9 9 10 9 9 9 9 10 11 11 11 11 10 11 11
3 0 2 1 2 1 2 2 2 0 1 1 3 3 3 4 3 5 3 3 1 2 6 9 6 6 6 7 8 8 17 28 27 25 24 22 22 22 22 22 23 23 23 23 22 20 19 18 17 16 16 16 15 15 15 14 14 14 14 13 13 12 11 13 13 13 12 11 11 11 10 10 10 9 9 8 8 9 9 8 8 8 8 9 9 9 9 9 9 9 11 11 11 11 10 11 11
3 0 1 2 2 2 2 2 1 1 1 3 3 3 5 5 2 5 1 1 2 2 3 6 4 3 7 7 10 18 26 29 27 28 25 23 22 21 21 21 21 22 22 22 21 20 19 18 18 17 17 17 16 16 16 15 14 14 14 13 13 12 12 13 13 12 12 11 10 10 10 10 10 9 9 8 8 8 8 8 8 8 8 9 9 10 10 9 8 9 11 12 11 10 10 10 10
1 1 0 2 2 2 2 2 2 2 3 5 5 4 5 5 2 3 1 1 3 1 4 1 2 5 10 9 18 28 30 29 29 29 25 23 21 19 20 20 20 20 20 21 20 20 19 19 19 18 18 18 17 17 17 16 14 14 14 14 13 13 13 13 12 11 11 11 11 10 10 10 9 9 9 9 8 8 8 7 7 7 8 9 9 9 9 9 9 8 10 12 11 10 10 9 8
2 1 2 2 2 3 3 3 3 4 5 7 7 5 5 7 4 2 1 3 4 4 5 2 4 9 13 19 28 30 28 30 30 28 23 21 20 18 18 19 20 20 21 21 20 20 20 20 20 19 19 18 18 18 17 15 14 15 15 14 14 14 13 13 11 10 10 11 11 11 11 10 10 9 9 9 9 8 7 6 6 7 8 8 9 8 8 9 9 8 9 10 9 9 9 9 8
3 1 1 3 3 3 3 3 4 4 6 8 6 5 6 7 6 3 3 4 3 5 4 3 9 13 16 23 28 27 28 30 28 26 23 20 20 19 18 19 19 20 22 22 21 20 20 21 20 20 20 19 19 18 17 15 15 15 15 15 15 14 13 13 12 11 11 10 11 11 11 10 10 9 8 9 8 8 7 6 6 7 7 7 8 8 8 8 8 8 8 8 8 8 8 8 8
4 2 2 4 4 3 3 2 3 5 8 10 6 5 6 5 5 3 4 5 3 4 5 7 12 15 17 20 23 26 27 26 26 25 22 21 21 20 20 21 20 21 23 22 22 21 21 22 21 21 20 20 19 18 17 16 16 16 16 15 15 14 14 13 13 12 11 10 10 11 11 10 10 9 8 8 8 8 7 6 6 6 6 7 7 8 9 8 8 8 7 7 7 8 8 7 7
3 4 5 4 3 3 3 2 4 7 8 9 7 6 6 4 3 3 6 7 2 4 7 9 14 19 20 18 20 24 25 24 24 23 22 21 20 20 20 22 22 22 22 22 22 22 22 22 22 22 21 20 19 19 18 17 17 17 16 15 15 14 14 14 13 13 11 11 11 11 11 10 10 9 8 8 8 8 7 7 7 7 7 7 7 8 9 9 10 9 8 7 7 7 7 7 6
2 6 9 5 2 2 3 2 6 8 6 7 9 7 6 5 3 5 7 6 2 3 5 7 14 19 20 20 19 21 21 20 21 22 21 21 21 20 20 20 21 21 21 22 22 23 23 23 23 22 22 21 20 19 18 18 18 17 17 16 15 15 14 14 14 13 12 12 12 11 11 11 10 10 9 8 9 9 8 8 8 8 8 8 8 8 9 9 9 9 7 7 6 6 5 5 5
5 5 8 8 6 5 2 4 6 7 8 9 9 6 7 6 4 5 6 3 1 3 2 4 11 18 22 21 18 18 18 17 19 21 22 22 22 22 22 21 21 22 22 22 23 23 24 24 24 23 22 22 21 20 19 19 18 18 17 16 16 16 15 15 14 14 13 12 12 12 11 11 11 9 9 9 9 9 8 8 9 9 9 9 9 8 8 7 7 6 6 6 5 4 3 2 4
7 7 8 8 8 8 5 6 6 7 8 8 7 8 9 9 6 6 6 3 3 4 4 4 10 19 21 19 17 16 17 17 19 22 23 23 24 24 24 23 23 23 23 23 24 24 25 24 24 24 23 22 22 20 19 19 18 18 17 16 16 16 15 15 14 14 13 12 12 11 11 10 10 9 9 9 9 9 8 9 10 10 11 10 8 8 7 6 5 5 5 5 4 4 3 2 3
9 10 10 7 7 8 7 7 7 7 6 6 8 9 8 8 7 7 7 4 4 5 6 6 9 17 18 16 17 15 15 17 19 21 22 22 23 24 22 22 23 23 24 24 25 25 25 25 24 24 23 23 22 21 20 19 19 19 18 17 17 16 16 15 14 13 13 13 12 11 11 10 10 9 9 9 8 9 9 9 10 11 11 9 8 7 6 5 5 5 4 4 3 4 5 5 5
8 10 10 9 7 8 10 9 9 8 5 6 9 7 5 6 7 5 4 5 5 6 9 7 8 16 16 15 16 14 15 17 20 21 21 22 24 23 22 23 23 23 25 25 26 25 25 25 24 24 23 23 22 21 21 20 20 20 19 18 17 17 16 14 14 13 13 13 12 11 11 11 10 10 9 9 8 8 9 9 10 10 9 7 7 6 5 5 4 4 3 2 3 4 6 7 7
6 7 9 11 8 9 11 10 9 7 6 7 8 7 5 5 4 3 4 6 6 7 11 8 8 16 16 15 14 13 15 18 22 22 20 21 23 24 23 23 23 24 24 26 27 26 25 25 23 24 23 23 23 22 22 21 21 21 20 19 17 17 15 14 14 14 14 13 12 12 11 10 10 10 9 8 8 8 8 9 9 8 7 6 5 5 4 4 3 3 1 1 3 4 5 7 8
6 6 8 10 5 8 11 11 10 7 5 6 8 8 4 2 1 3 8 8 7 9 12 9 8 13 14 15 14 11 14 19 23 22 20 21 22 24 25 25 25 24 25 27 27 26 26 25 24 24 23 23 23 23 22 22 22 21 20 19 18 17 15 14 14 14 14 13 12 11 11 10 9 9 9 8 8 7 8 8 8 8 7 6 5 5 4 4 3 2 1 1 3 4 5 6 7
7 6 5 5 3 7 8 8 9 7 5 7 9 7 2 4 3 6 12 10 9 10 9 9 7 9 11 13 13 10 14 20 22 21 22 24 24 26 26 27 28 25 26 28 27 27 27 26 25 24 24 23 24 23 23 22 22 21 20 19 19 17 16 15 15 15 15 14 12 11 11 10 10 10 10 9 8 7 8 8 7 7 7 6 6 6 6 5 4 3 2 2 2 4 5 6 8
6 4 1 2 4 2 6 5 8 6 4 10 8 2 5 8 5 8 13 12 13 11 9 10 8 8 10 11 11 11 15 18 20 22 24 25 26 27 28 28 28 26 26 27 27 28 27 27 26 25 24 23 24 24 23 23 22 21 20 19 19 17 17 16 16 16 16 14 13 11 11 10 10 10 10 10 10 9 8 8 8 7 7 7 7 7 7 6 6 5 3 2 2 3 4 5 9
3 3 1 3 1 3 5 5 9 6 4 11 5 2 5 7 7 9 13 13 15 13 11 13 12 10 11 10 12 12 14 18 22 25 26 27 27 28 29 29 29 27 27 28 29 29 28 27 26 25 25 24 24 24 24 24 22 21 20 19 18 18 17 17 16 17 16 15 13 12 11 11 11 11 12 12 11 10 9 8 8 8 8 8 8 8 7 7 7 6 5 5 4 3 2 3 7
1 1 2 0 2 3 4 5 10 7 4 10 5 2 3 5 9 11 12 14 14 14 13 15 15 14 13 11 12 12 13 19 24 26 27 29 29 29 30 30 30 30 29 29 29 29 28 28 27 26 25 25 24 24 24 24 22 20 19 18 18 18 17 17 17 17 17 16 15 13 12 12 12 12 13 13 12 12 11 10 9 8 9 9 8 8 8 8 8 7 7 7 5 3 1 1 5
3 1 2 1 1 2 3 4 9 5 4 9 7 2 2 3 10 11 13 15 14 15 16 17 17 15 14 11 11 12 12 15 19 24 28 29 29 30 31 32 32 32 31 30 30 30 30 29 28 27 27 26 25 25 25 23 21 19 18 18 18 18 18 18 17 17 18 17 16 15 14 14 14 14 14 14 13 12 11 11 10 9 9 8 8 8 9 10 9 9 8 7 5 3 2 1 4
3 2 1 2 1 3 3 4 8 5 2 8 9 5 4 3 10 12 13 16 15 16 17 18 18 15 13 11 12 13 13 14 14 21 29 30 29 31 33 33 34 33 32 32 32 31 31 30 29 28 28 27 26 26 25 23 21 19 19 18 18 18 18 18 18 17 17 17 17 16 16 15 15 15 15 14 13 11 11 11 11 10 9 9 8 9 10 11 10 9 8 7 5 4 3 3 3
2 0 1 3 2 2 3 3 7 9 5 7 9 9 9 3 9 12 13 15 16 15 16 16 17 17 14 13 13 13 15 14 14 21 30 31 30 31 33 34 34 34 33 33 32 32 31 30 30 29 29 29 27 26 25 24 22 21 20 19 19 19 18 19 19 18 17 17 17 17 17 17 16 16 15 15 14 12 11 12 11 10 10 9 9 10 11 11 10 9 8 7 6 5 3 3 3
4 2 2 2 3 1 4 2 6 13 9 8 10 11 11 7 8 12 12 14 14 13 13 13 14 15 14 13 12 13 15 15 16 23 30 31 31 32 32 33 33 33 34 34 33 32 30 30 30 29 30 30 29 27 26 25 23 22 21 20 20 20 20 21 21 19 18 18 18 17 17 17 17 16 15 15 14 13 13 12 12 11 10 10 10 11 11 11 10 8 8 7 6 5 4 3 2
2 2 2 3 3 3 4 4 5 12 9 10 14 12 12 10 9 12 12 13 14 12 13 13 13 13 13 14 14 15 15 15 18 23 29 31 31 32 32 32 33 32 32 34 34 33 32 31 30 30 31 31 31 30 28 27 26 24 22 22 21 21 21 22 23 22 20 19 18 17 17 17 17 17 16 15 15 14 13 13 12 11 11 11 10 10 10 10 9 8 7 6 5 5 5 3 1
3 3 3 4 3 4 5 5 5 10 8 8 11 12 10 7 7 10 12 15 16 15 16 16 16 14 12 14 15 15 13 12 16 18 24 30 30 31 32 31 32 31 31 33 35 35 34 32 31 32 32 33 33 32 30 29 29 26 24 23 22 21 21 22 22 22 21 19 18 18 17 17 18 18 17 15 15 14 14 13 12 12 11 10 9 9 10 9 9 8 7 6 5 6 5 4 2
4 3 3 3 3 2 6 7 4 8 8 4 6 8 5 3 5 9 13 16 15 14 15 16 17 15 13 14 14 14 13 13 15 15 19 27 30 31 31 31 33 34 33 34 35 35 34 33 32 32 33 34 34 32 31 31 30 28 25 23 22 21 21 20 20 21 20 20 20 19 18 18 18 18 17 16 15 15 14 13 13 12 11 10 10 10 9 9 9 8 7 6 6 7 6 5 4
4 4 3 3 2 2 3 6 3 4 5 1 4 5 2 4 5 7 11 12 9 10 11 10 13 15 15 16 14 14 15 15 16 16 16 21 28 30 30 31 33 33 33 34 35 35 35 35 33 33 34 35 35 33 33 32 30 28 25 23 22 21 20 19 20 21 21 21 22 21 19 19 18 17 17 16 15 15 14 14 13 12 11 11 11 11 9 9 9 9 8 7 7 8 7 6 6
5 6 6 5 3 4 6 5 5 2 1 2 4 2 2 5 7 6 7 8 7 8 10 10 10 13 13 13 13 14 16 15 16 17 16 17 24 29 30 32 33 33 33 35 36 36 36 37 36 34 35 36 35 34 33 31 30 28 25 21 20 20 19 20 22 23 23 24 23 21 20 19 18 17 17 16 15 14 13 14 14 12 11 11 11 10 9 8 9 9 9 8 7 8 8 7 7
5 7 9 7 5 7 8 4 4 2 4 4 4 2 5 4 8 7 6 8 9 8 11 13 11 11 12 11 13 14 14 15 15 17 17 16 21 28 30 32 33 33 34 36 38 38 37 38 37 35 35 36 35 35 35 33 31 30 27 23 21 20 19 22 25 26 26 26 23 21 19 19 18 18 18 17 15 14 13 14 14 13 12 11 9 9 8 8 9 10 10 9 7 7 8 7 8
5 6 7 8 8 8 8 4 2 2 5 5 5 5 4 3 5 8 7 10 11 9 11 14 12 12 12 12 13 13 13 14 13 15 17 16 20 26 28 31 34 34 36 37 38 38 38 38 38 37 36 36 36 36 35 34 32 32 30 28 26 25 24 23 25 27 28 27 24 21 20 20 19 19 19 17 15 13 13 14 13 12 12 10 9 9 8 8 9 10 10 10 8 7 8 8 8
6 5 7 7 8 8 9 6 5 5 3 2 0 3 1 3 4 7 8 8 9 11 13 14 14 14 14 13 13 14 14 14 13 14 17 17 20 26 28 32 35 36 36 37 37 38 38 39 39 39 37 36 37 37 36 35 34 33 32 30 28 28 27 24 23 25 27 27 24 22 21 21 20 19 19 17 16 14 13 13 12 12 12 10 9 9 8 8 8 9 10 10 9 8 8 7 8
10 7 6 6 7 7 7 6 4 3 2 0 3 2 2 4 4 4 8 8 10 15 17 16 15 15 15 14 14 15 15 14 14 15 17 17 20 27 31 33 34 36 37 37 38 38 38 39 39 39 38 37 37 37 37 37 36 35 34 32 29 28 27 23 22 24 26 26 25 23 22 22 20 20 18 17 17 15 14 13 12 12 11 10 10 9 8 8 8 9 10 11 11 10 8 6 8
10 5 4 4 4 3 3 4 4 2 3 4 7 5 3 5 3 4 7 7 11 15 17 16 15 15 15 15 15 15 14 13 14 15 16 19 23 27 31 32 34 35 36 38 38 37 37 38 38 39 39 38 37 38 39 38 36 36 35 33 31 29 26 23 21 24 26 26 25 24 23 23 21 20 19 18 17 16 15 14 13 13 12 11 11 10 9 9 9 9 10 11 11 10 9 7 7
7 0 3 3 1 2 2 2 3 4 1 6 9 9 6 4 4 4 7 11 16 16 13 13 14 15 16 15 15 15 14 12 13 14 16 21 25 27 29 31 33 34 35 36 37 37 38 38 38 39 39 38 37 38 39 39 37 36 36 35 33 31 28 24 23 26 27 27 26 26 24 23 22 21 19 18 18 17 16 15 14 14 12 12 11 11 11 10 10 10 11 11 11 10 9 8 7
6 1 1 1 3 3 3 3 3 3 4 7 7 6 4 3 5 5 10 15 18 17 14 14 17 17 16 15 15 15 14 13 13 13 14 18 20 23 27 30 32 33 34 35 36 36 37 38 39 39 39 38 38 38 39 39 38 37 37 36 35 34 31 27 26 28 29 29 28 27 25 23 23 22 20 20 19 18 17 17 16 15 14 13 13 12 12 11 11 11 11 12 11 10 9 9 9
4 3 3 1 2 1 1 2 1 4 5 5 5 5 2 5 7 8 13 15 15 15 14 14 17 18 16 15 15 14 14 14 14 13 13 15 15 18 25 29 31 33 34 36 37 37 37 38 39 39 39 39 39 39 39 39 38 38 38 37 36 35 33 31 29 28 29 30 29 28 26 25 25 24 23 23 22 20 19 18 18 17 16 15 15 14 13 13 12 12 13 12 12 11 10 10 11
3 5 4 4 3 2 2 3 1 2 4 5 3 3 1 4 6 8 13 15 15 14 13 13 16 17 17 16 15 14 14 14 14 13 14 14 14 18 24 28 30 32 35 37 37 37 37 37 39 40 40 41 40 40 40 39 39 39 39 38 37 36 35 34 32 30 30 30 30 29 28 26 26 26 26 25 24 22 20 20 19 19 18 16 17 17 15 13 13 14 14 14 13 12 11 11 11
2 5 6 5 5 4 3 3 3 3 3 3 1 2 3 4 5 6 9 11 10 10 11 12 13 14 15 14 13 14 14 14 13 14 15 15 16 21 25 28 31 32 35 37 37 38 38 37 40 41 40 40 40 40 40 40 39 39 39 38 38 38 37 36 35 33 32 32 31 30 28 27 27 26 25 25 24 23 22 21 20 20 19 18 18 19 18 15 14 14 14 15 15 13 12 12 12
3 2 5 3 3 4 2 3 5 4 1 1 1 2 4 5 3 6 7 8 6 6 9 10 12 12 12 11 13 14 15 15 14 14 16 16 18 23 25 27 30 32 34 36 36 38 39 38 40 41 41 41 41 41 41 41 41 39 39 39 39 39 38 36 36 35 33 33 33 32 30 28 27 26 25 25 25 25 24 23 22 21 20 19 18 19 20 18 16 15 13 13 15 15 14 13 12
2 2 1 4 4 3 3 2 1 3 2 1 2 2 4 3 2 9 14 13 11 8 6 9 12 11 12 13 14 15 16 16 16 16 16 17 18 22 25 28 30 32 34 36 37 39 40 40 40 41 41 41 42 42 42 42 41 39 39 39 39 40 39 38 37 37 36 34 34 34 32 30 29 27 26 25 25 25 25 24 23 23 22 21 19 19 20 20 18 16 14 14 14 15 15 14 12
1 2 4 5 2 2 3 1 2 4 1 3 1 1 3 4 2 9 16 17 16 15 10 9 10 9 12 14 14 16 17 17 18 17 16 16 18 22 26 28 31 34 36 37 38 39 40 40 41 41 41 40 42 42 42 41 41 40 40 39 39 40 41 40 39 39 38 36 35 35 34 33 31 29 28 26 25 26 26 25 25 24 23 22 20 19 20 21 19 17 17 16 14 14 16 15 14
3 2 3 3 3 2 1 2 2 2 2 3 3 1 3 4 4 9 14 14 16 17 14 11 8 10 13 14 15 16 16 15 15 15 16 16 17 22 27 29 31 34 36 37 38 37 38 39 40 42 42 42 42 41 40 40 40 40 40 40 41 41 41 41 40 39 38 37 37 37 36 35 34 32 30 29 28 27 27 27 26 25 24 23 22 21 21 21 20 19 19 18 16 14 16 17 16
5 3 5 4 2 2 1 1 3 2 3 3 2 3 2 1 4 7 10 12 14 15 15 14 11 11 14 14 13 14 14 14 14 15 16 17 18 24 29 30 31 34 35 36 36 36 37 38 39 40 40 41 41 41 41 40 41 40 39 39 40 40 40 40 39 38 38 39 40 39 38 37 36 34 33 32 30 29 28 27 27 26 25 25 23 22 22 22 21 21 21 20 18 16 17 18 17
6 7 7 6 4 2 1 1 1 3 3 3 2 2 2 5 2 6 9 10 12 13 13 14 13 10 14 15 13 14 14 14 15 15 15 16 18 23 30 31 31 32 33 34 36 36 37 37 37 39 39 39 40 41 41 40 40 40 39 38 38 38 38 38 37 37 38 39 40 40 39 38 37 36 34 34 33 32 30 28 27 27 26 25 24 23 23 23 23 23 23 23 22 20 20 20 19
6 6 6 6 5 4 2 1 3 2 2 2 4 3 4 5 2 6 8 8 11 14 14 13 14 12 9 14 14 14 15 16 16 16 16 16 16 21 27 29 29 29 31 33 35 35 35 36 37 38 38 39 39 40 40 39 38 39 39 38 38 38 38 37 36 36 36 38 39 40 41 39 38 37 36 35 34 33 32 30 29 27 26 26 25 25 24 24 25 25 25 25 25 24 23 22 22
Wind_Direction
168 147 146 146 139 133 130 149 107 302 244 273 254 237 261 166 279 280 198 190 134 108 63 78 111 106 87 74 143 124 58 108 141 142 189 153 146 151 153 152 148 143 144 141 138 137 139 140 139 139 139 138 139 140 143 144 142 138 134 131 128 127 128 129 126 123 123 122 118 115 111 107 106 108 108 108 109 108 107 106 109 108 109 114 115 117 117 116 116 115 116 119 120 119 120 119 118
159 145 146 144 142 138 41 114 109 280 239 262 253 192 245 98 162 248 207 179 86 99 77 75 94 79 53 37 119 120 49 25 85 124 114 135 139 147 153 152 147 144 144 140 138 139 141 141 141 141 140 140 141 142 145 146 142 138 135 133 131 130 130 129 126 125 125 125 122 120 116 110 107 109 108 108 108 107 105 104 107 108 110 113 115 116 114 112 113 113 115 118 119 120 122 121 120
151 145 146 142 145 184 358 49 129 224 240 255 273 228 227 97 197 226 182 107 47 100 105 92 81 55 33 33 24 75 69 48 112 115 119 139 139 151 155 151 148 145 143 142 141 142 143 142 142 142 142 143 143 145 147 147 142 138 136 136 135 132 131 130 129 128 127 126 123 120 116 109 104 105 104 106 108 107 105 104 106 109 112 113 114 114 111 110 111 113 114 116 117 120 121 122 121
148 146 146 142 86 350 64 36 182 208 250 248 294 262 189 214 221 192 126 92 85 125 125 112 86 20 16 78 85 75 93 107 128 120 132 153 152 154 155 151 149 146 144 144 144 145 144 145 144 143 144 145 146 148 148 146 142 138 138 138 136 133 132 132 130 128 126 125 121 117 112 107 104 103 103 106 108 108 108 108 109 111 112 111 112 112 111 109 109 110 110 110 113 117 120 122 121
147 147 152 147 36 74 91 269 251 228 235 200 252 218 160 200 193 157 126 160 134 141 135 119 92 50 36 81 99 95 115 126 136 129 134 153 155 153 154 152 150 147 146 146 147 147 147 148 147 146 145 146 148 148 148 145 141 141 142 139 135 132 133 134 132 130 129 127 123 117 112 109 108 107 107 110 113 113 113 113 114 113 112 109 109 110 108 105 104 104 104 107 110 114 118 120 120
142 144 171 252 43 159 140 261 254 242 235 169 204 178 165 191 171 151 132 114 55 80 100 102 112 106 81 45 52 104 128 127 133 138 138 148 154 154 154 153 151 149 149 149 150 150 150 152 151 148 145 146 149 148 147 145 144 144 142 138 136 134 136 137 136 135 133 130 126 120 117 116 115 113 113 117 118 118 117 116 117 114 111 110 109 107 103 101 102 102 102 105 109 112 115 118 118
141 142 171 257 15 204 219 271 260 254 249 171 203 153 179 193 163 152 132 127 65 55 39 60 119 107 91 105 86 103 117 120 131 146 147 149 153 155 155 154 151 150 151 151 153 152 152 155 152 148 146 149 151 150 146 145 146 144 141 140 140 140 141 141 139 140 139 135 132 128 124 123 121 119 119 124 125 122 120 118 118 116 113 110 108 106 103 102 102 102 102 104 109 112 114 118 118
142 151 165 140 171 244 228 279 259 244 247 163 207 151 182 178 165 157 120 87 56 86 73 104 149 106 79 95 94 90 99 116 139 146 146 147 152 155 156 155 153 152 154 154 154 153 154 155 152 150 151 151 152 149 146 146 147 145 143 142 142 143 144 145 144 145 144 141 140 136 130 128 127 125 127 130 128 124 121 120 120 118 116 114 111 109 106 103 101 102 103 103 107 111 115 117 117
158 171 279 175 261 293 262 278 262 240 232 154 237 154 174 165 164 146 112 89 70 123 135 177 212 108 91 83 86 78 92 124 139 140 145 148 153 155 156 158 155 154 155 156 155 154 155 156 153 153 153 153 152 148 147 148 147 146 143 141 141 144 146 147 148 148 147 144 144 141 134 131 130 129 132 131 127 125 123 122 120 118 117 115 114 112 107 103 102 101 102 104 107 108 111 112 113
265 92 329 297 321 319 287 271 258 250 53 328 267 151 144 144 146 124 110 121 136 144 153 178 171 108 109 91 91 97 114 132 136 137 146 149 152 154 157 160 158 156 156 157 157 156 156 156 155 155 155 154 151 147 150 151 151 150 147 143 142 145 147 148 150 148 147 146 147 144 137 135 133 132 130 128 127 126 124 123 121 120 119 116 114 112 108 105 103 101 100 104 106 105 106 108 110
71 183 284 269 268 275 271 272 274 300 33 340 349 114 117 104 96 106 103 124 134 138 145 136 118 116 109 95 94 117 126 133 135 140 147 149 151 155 158 160 160 157 157 158 159 157 156 157 156 155 155 152 149 149 153 156 156 155 151 148 147 151 151 150 150 148 148 150 149 147 143 138 135 132 129 128 128 126 125 124 122 121 118 114 113 112 110 108 106 104 102 102 102 102 105 108 112
91 181 109 200 232 223 241 266 289 310 61 33 88 81 103 112 99 123 114 121 114 130 144 128 140 133 108 111 115 124 130 135 140 143 146 149 153 156 158 159 159 158 157 159 159 158 158 158 156 155 154 151 151 155 157 159 159 157 154 153 156 157 153 152 153 153 153 153 151 151 148 140 136 135 130 129 126 122 124 123 122 121 117 115 115 115 114 112 109 108 106 104 103 102 104 108 112
158 173 108 193 213 196 247 260 286 302 75 29 99 96 117 122 117 120 110 109 101 141 156 136 152 136 106 119 123 133 137 142 145 144 147 151 154 155 156 157 157 158 158 160 159 159 159 159 158 156 155 154 157 158 157 158 159 158 157 159 162 159 156 157 160 159 156 154 154 153 150 142 139 137 131 127 122 118 118 122 125 124 121 120 120 119 117 115 114 112 109 106 105 104 106 110 112
185 173 125 223 259 213 247 240 268 286 56 23 103 127 147 109 102 85 86 112 77 173 129 123 138 110 113 133 135 150 145 148 148 146 150 151 153 152 153 155 156 157 159 161 161 160 161 161 161 159 158 159 160 158 158 158 158 159 160 161 160 158 161 161 161 160 158 158 157 154 151 144 141 140 134 129 122 118 118 123 128 128 126 124 123 122 121 120 117 113 110 109 107 106 109 114 117
191 175 125 251 301 265 245 213 244 219 85 130 148 156 115 61 93 87 73 127 121 241 111 124 143 106 152 168 154 160 151 152 150 147 150 149 150 150 151 153 153 156 159 162 162 163 165 164 164 162 163 163 162 160 159 159 159 160 161 161 159 159 160 157 157 157 157 159 158 155 151 145 142 141 139 136 128 121 120 124 129 132 130 126 128 127 125 123 118 114 114 112 109 110 113 116 119
182 144 91 276 281 268 248 199 211 154 122 149 163 179 107 62 57 95 79 201 149 245 80 146 193 130 168 174 146 150 152 153 149 147 147 145 146 145 149 152 153 156 159 164 165 167 169 168 167 166 165 164 163 161 158 159 162 161 160 159 158 159 157 155 156 156 156 157 156 155 152 146 144 142 143 143 132 124 122 125 130 135 133 132 134 132 129 125 118 118 119 113 109 112 115 115 117
136 183 199 272 256 241 241 206 198 149 142 150 168 197 131 106 74 99 198 36 99 65 35 149 259 124 146 140 140 147 151 149 145 145 143 142 142 141 147 152 155 158 163 167 169 171 173 171 170 168 166 163 162 159 157 160 161 159 157 155 156 158 156 155 156 155 155 154 153 154 152 148 149 149 149 146 135 126 124 124 130 135 134 134 135 133 131 128 123 122 120 115 112 114 116 116 115
163 201 190 237 233 216 232 203 154 126 148 161 167 185 142 135 140 145 161 63 70 72 50 47 75 107 123 129 143 149 147 143 143 145 143 144 146 145 151 157 161 163 167 170 173 176 175 174 172 168 165 163 162 160 158 160 157 153 152 151 155 157 155 155 154 153 153 155 155 155 154 153 155 154 150 145 136 129 125 123 127 132 133 134 134 133 132 132 131 124 119 117 117 115 113 115 114
194 189 189 234 216 225 242 169 134 123 157 158 151 162 145 143 140 155 165 111 110 100 79 110 108 114 123 135 149 149 142 142 146 147 148 152 154 155 157 161 166 168 170 172 175 178 177 176 175 170 166 163 164 162 158 159 155 152 153 154 157 157 155 155 154 153 155 157 157 156 156 157 158 155 149 144 137 132 127 125 128 130 133 134 135 135 137 138 136 130 122 117 117 114 109 115 120
201 195 230 248 226 258 287 164 133 125 149 146 140 140 137 146 128 145 157 123 131 138 146 146 132 136 137 147 154 146 143 146 149 150 153 158 160 162 161 164 169 172 173 174 176 178 180 178 176 173 168 166 166 163 160 159 157 157 158 157 159 157 156 156 154 156 157 157 157 157 157 158 159 154 149 145 141 138 133 135 136 138 140 140 142 142 142 142 143 143 133 127 125 120 112 113 122
183 199 223 247 213 248 267 184 112 124 144 139 138 134 134 149 122 140 145 129 166 180 173 159 147 148 146 155 156 147 147 149 151 153 156 160 163 166 165 168 172 173 173 174 177 180 181 180 178 175 170 169 169 165 162 162 161 161 160 159 160 158 158 158 157 157 155 155 156 156 157 157 159 155 154 153 151 149 148 150 149 153 155 148 149 148 148 149 153 155 151 148 141 131 121 112 118
225 220 232 256 255 253 245 149 120 129 134 131 143 144 136 140 129 153 153 153 197 173 184 170 151 152 152 158 154 149 151 152 155 157 159 163 165 166 167 171 172 173 173 174 179 181 182 181 179 177 173 172 172 169 165 165 165 163 162 160 161 161 160 160 159 157 154 155 155 154 155 156 160 160 162 163 161 161 159 159 158 158 156 149 148 149 148 149 152 155 157 159 154 144 132 119 125
249 247 239 246 245 254 220 142 141 137 142 153 156 140 128 137 136 156 165 170 154 103 149 175 154 152 152 156 154 153 156 156 159 160 163 166 167 167 169 172 173 173 174 177 180 182 183 183 182 179 176 175 174 173 168 167 167 165 164 163 164 163 162 163 161 160 158 159 157 157 158 159 161 162 167 168 166 165 163 162 160 158 155 151 147 147 148 147 149 155 162 170 173 171 159 139 143
236 257 255 238 226 229 194 153 160 152 158 160 143 138 151 161 148 157 180 165 121 96 117 160 151 151 154 159 158 157 158 158 160 162 166 169 170 170 170 173 175 175 175 178 180 182 184 185 183 181 179 178 177 175 171 170 169 167 167 168 166 165 166 168 166 164 164 163 161 162 165 164 162 162 165 165 163 162 163 162 160 160 159 157 155 153 156 156 158 162 170 180 185 195 215 221 191
228 245 258 246 223 208 178 154 162 160 158 141 138 155 165 160 133 153 177 141 125 112 131 153 146 154 160 161 160 157 157 159 161 163 166 170 171 170 171 174 176 176 177 178 180 183 185 185 184 183 182 181 180 176 173 172 172 170 171 171 169 169 171 173 171 168 166 166 165 167 170 166 162 163 164 161 160 159 161 163 163 164 165 166 166 163 163 162 168 173 183 196 207 221 230 240 233
224 237 251 252 236 190 168 158 164 156 149 148 148 152 146 134 118 133 164 137 131 122 145 159 152 163 165 162 163 158 159 162 164 166 166 169 170 170 172 175 177 179 179 179 180 183 184 185 186 186 185 184 182 178 175 174 174 174 175 174 172 173 174 176 175 170 170 171 170 171 172 169 166 168 172 168 163 160 164 169 170 173 174 174 172 167 167 167 169 179 197 227 246 244 238 241 238
242 248 264 262 245 186 166 160 160 141 148 169 149 136 133 140 135 149 165 150 140 134 155 166 160 169 166 162 166 161 163 167 166 166 165 168 171 173 174 177 181 181 179 179 181 183 184 186 190 190 188 187 185 181 177 176 177 178 178 177 176 176 176 179 180 177 178 178 174 175 176 177 177 178 185 182 172 169 172 176 179 184 186 180 174 171 173 172 170 177 206 277 278 260 241 236 233
285 272 293 283 227 167 163 156 157 138 152 180 132 114 113 136 238 179 155 155 155 147 157 168 171 174 168 163 166 164 166 168 168 167 168 172 174 175 176 179 182 182 181 181 183 184 184 188 192 192 191 188 187 184 180 179 180 180 180 180 180 179 181 183 185 185 183 182 179 180 182 185 188 189 192 190 183 181 181 182 183 186 186 183 184 185 188 191 188 189 201 252 264 256 241 229 224
294 271 305 317 89 141 166 148 157 153 148 168 132 105 149 205 222 158 149 156 159 150 154 169 178 181 176 167 165 168 168 169 171 174 175 175 176 177 178 181 182 182 182 183 184 184 185 189 192 193 193 190 188 187 183 182 183 182 183 183 183 183 185 186 187 188 185 184 184 184 186 191 196 195 195 197 197 197 195 192 188 184 185 188 190 190 193 197 198 198 200 232 251 249 245 227 219
279 255 134 79 53 137 182 134 157 165 138 170 158 109 212 208 202 156 152 160 157 154 164 174 178 185 187 175 167 171 171 172 175 178 178 176 177 179 180 182 183 182 182 183 184 186 186 187 190 192 194 192 190 188 185 183 184 185 186 186 187 188 188 189 189 190 190 189 190 189 190 195 199 198 195 196 196 198 199 194 190 190 190 189 189 191 195 200 205 210 213 227 232 232 230 221 218
271 263 70 118 106 201 189 149 164 165 145 178 181 331 227 201 189 167 159 164 161 162 174 179 180 186 193 180 171 173 173 177 179 179 179 177 178 180 181 182 183 184 182 183 186 187 186 187 188 190 194 194 191 191 187 184 186 187 190 191 191 191 191 192 193 194 196 197 195 193 194 197 199 197 194 192 189 190 194 194 193 195 197 199 199 198 202 210 217 224 226 220 208 191 204 231 219
333 260 318 60 198 201 181 177 181 170 154 185 197 308 246 188 173 168 163 169 167 169 177 181 183 191 197 183 172 175 175 179 180 180 180 179 179 181 182 182 183 186 185 185 187 186 187 188 188 189 193 194 193 194 189 186 188 190 194 197 196 196 195 196 197 198 200 202 200 197 197 198 199 198 194 191 189 189 192 194 195 198 203 208 212 211 213 221 228 232 231 222 207 171 148 279 216
355 116 247 231 202 195 162 189 208 195 130 188 212 247 263 167 164 164 168 175 171 173 180 183 188 195 196 183 174 177 174 178 181 182 181 180 180 181 182 183 184 187 188 187 186 186 187 188 188 190 193 194 194 194 192 190 192 196 200 201 201 201 200 198 198 201 203 204 203 201 200 201 202 201 198 195 194 195 196 197 199 201 206 209 216 222 224 226 232 234 230 224 212 184 132 97 198
323 1 265 256 172 159 161 172 209 220 149 198 213 231 253 178 162 167 174 179 175 178 184 185 188 194 195 184 177 179 177 180 182 182 182 181 182 182 183 185 186 188 189 189 188 188 188 189 190 191 193 193 193 195 194 193 197 202 205 206 206 205 204 203 200 202 204 205 203 202 203 204 205 205 201 200 202 203 204 205 204 201 204 209 216 222 223 225 229 227 223 221 215 203 165 126 150
205 339 33 306 338 130 182 168 185 197 216 219 206 225 245 208 160 172 178 180 181 184 186 186 187 190 193 185 180 181 182 186 183 180 182 182 182 182 184 185 186 187 189 190 190 189 188 190 191 191 193 193 192 195 195 196 203 207 208 210 212 211 212 211 206 204 205 204 202 202 205 205 205 206 203 202 204 208 211 211 209 206 205 207 210 213 214 217 220 216 214 218 217 214 198 157 147
168 177 149 265 311 277 217 230 188 184 200 224 206 216 229 209 172 177 179 180 185 189 188 188 188 189 192 187 184 183 184 189 184 178 181 183 183 183 184 185 186 187 189 190 189 189 189 190 191 191 193 192 192 195 197 201 205 204 204 208 212 213 216 216 211 209 207 204 202 203 206 206 206 206 204 204 207 212 215 213 213 213 209 205 207 209 209 209 210 207 207 212 212 211 201 185 197
205 265 274 266 281 275 239 244 205 180 193 226 215 218 219 204 187 181 177 181 189 192 189 192 191 189 191 190 188 185 186 189 184 177 179 183 184 183 183 184 185 186 188 189 188 189 190 191 192 192 193 193 193 194 197 202 202 197 197 202 207 210 211 213 212 211 211 207 204 204 205 206 207 208 208 208 211 214 213 214 216 213 206 204 208 210 210 209 204 200 202 203 199 195 186 173 226
254 260 277 288 253 263 267 257 220 180 193 236 223 226 228 204 190 182 175 184 194 193 188 191 192 189 191 191 190 187 185 184 183 177 176 181 183 183 182 182 183 185 187 189 188 188 190 192 193 193 193 193 194 195 197 199 199 197 196 198 204 205 206 209 211 212 211 209 206 205 206 206 207 208 210 214 217 216 213 214 213 209 204 202 204 209 212 212 207 202 201 198 186 178 178 165 144
250 244 261 277 239 283 292 279 258 183 196 255 219 222 240 176 182 190 186 193 199 196 192 192 190 189 190 192 190 187 183 181 186 181 174 180 183 182 181 182 184 185 186 189 190 188 189 191 193 193 192 192 194 197 197 196 197 200 199 198 201 201 203 210 214 213 211 210 209 209 209 208 207 209 212 217 221 220 218 216 210 207 206 201 201 207 210 210 208 205 199 196 187 178 179 175 170
244 232 240 248 189 88 286 289 321 165 185 280 159 184 224 148 171 201 198 201 202 201 202 198 194 194 194 192 189 187 185 183 187 185 176 178 182 182 182 183 184 185 186 188 189 188 188 191 192 193 192 193 195 197 197 196 197 200 201 200 201 204 208 215 216 214 212 212 211 211 212 209 209 211 212 217 221 222 221 218 211 207 207 203 205 212 212 209 206 201 198 196 189 182 185 189 194
251 230 227 229 175 178 225 280 348 35 308 318 110 82 286 175 179 204 195 199 207 203 204 204 203 202 199 195 193 192 190 187 187 188 183 178 182 184 184 183 184 185 186 188 189 189 189 191 192 193 193 194 196 197 197 198 197 199 199 198 198 200 207 211 210 209 210 213 212 211 212 210 210 210 212 216 219 220 220 217 212 209 208 207 208 215 216 212 207 202 202 202 196 191 192 197 205
272 243 222 212 201 217 232 264 333 343 280 255 137 83 288 205 187 195 174 191 205 201 204 207 206 201 198 197 197 197 194 191 189 189 189 184 181 184 185 184 184 186 188 189 190 190 190 191 192 193 194 195 197 197 196 198 198 198 197 196 192 190 197 204 207 208 208 211 212 211 211 210 210 210 211 216 218 217 216 215 214 211 212 211 208 211 213 214 210 206 208 210 208 205 203 205 209
268 240 201 196 205 228 245 233 187 219 252 245 174 187 266 278 207 193 174 192 200 199 210 213 207 201 199 199 197 197 196 194 192 191 193 189 182 183 185 185 185 187 189 189 190 191 191 192 192 193 194 195 196 196 196 197 197 197 199 200 197 193 196 203 209 212 212 213 213 213 212 210 210 210 211 215 217 216 215 216 215 213 214 213 209 209 211 215 213 210 212 212 214 216 216 217 217
251 222 156 170 196 219 236 216 193 219 241 338 171 162 170 297 239 185 170 187 200 209 217 214 209 205 201 199 197 196 196 194 192 192 194 192 186 185 186 186 187 188 188 188 189 191 192 192 192 193 194 196 196 195 195 196 196 197 200 203 203 201 202 205 210 212 213 215 215 215 213 211 210 211 211 214 217 217 217 217 214 212 215 215 213 213 212 213 212 212 213 211 214 218 219 225 227
250 233 161 170 190 206 216 195 198 214 119 53 259 142 126 277 279 158 168 187 205 216 219 213 208 205 202 200 198 198 197 194 193 193 195 195 189 188 188 187 188 188 188 188 189 190 192 192 192 192 194 196 196 196 196 197 198 198 200 204 206 206 206 208 209 210 211 213 214 215 214 212 211 210 210 213 217 218 217 218 217 216 218 218 218 219 218 216 214 215 216 213 216 218 217 226 229
248 234 199 207 184 194 193 155 153 117 108 213 221 183 177 268 287 150 167 198 216 222 221 214 207 203 202 201 197 197 197 194 194 195 196 197 193 190 189 187 188 189 189 189 189 190 191 192 191 192 193 195 197 197 197 198 199 200 201 205 207 207 207 207 206 208 210 211 212 214 214 213 211 209 209 212 216 217 217 219 222 222 223 223 223 224 222 218 215 214 216 218 221 221 220 220 220
238 187 215 238 127 82 68 78 97 108 232 243 215 195 190 253 277 182 178 203 213 218 220 209 206 204 200 199 196 195 195 194 195 195 197 199 195 190 188 187 188 189 189 189 189 190 190 191 191 192 194 195 196 198 198 199 199 201 203 205 207 208 207 205 203 205 208 209 210 212 214 214 213 210 209 211 214 216 217 219 223 226 228 227 226 227 224 222 221 220 221 223 223 224 223 221 213
216 162 143 270 321 36 50 2 51 135 250 259 215 186 172 227 263 224 211 215 212 214 215 203 203 204 199 198 195 193 194 193 193 194 195 197 194 188 187 188 188 187 188 189 189 190 190 190 191 193 194 194 196 198 199 200 200 201 203 205 207 209 209 207 204 204 206 208 210 212 214 215 214 213 211 211 211 212 215 217 222 226 229 228 228 229 228 227 230 233 232 229 227 227 228 226 220
169 168 124 154 282 2 137 284 195 180 251 258 182 135 146 242 253 229 223 229 224 218 216 206 203 203 200 197 194 192 193 192 193 194 194 194 191 186 186 188 187 187 188 188 189 189 189 191 191 192 194 195 196 199 200 200 200 201 203 205 207 209 211 211 209 207 207 209 211 211 214 216 216 215 214 213 211 210 212 217 222 226 228 231 231 231 232 233 238 242 242 239 234 230 228 227 227
155 171 146 163 175 122 205 237 204 203 253 261 196 150 201 266 267 231 219 227 226 219 215 208 204 202 200 197 192 192 193 192 193 193 193 195 192 188 188 188 188 188 189 188 189 189 189 190 192 193 195 195 196 198 200 202 202 203 204 205 207 209 211 212 212 211 209 209 211 212 215 217 217 217 216 216 214 212 214 218 223 227 230 233 233 232 233 237 243 249 250 247 240 233 227 227 232
253 186 147 152 164 152 195 207 177 203 241 278 262 183 176 205 252 244 233 242 237 224 221 211 205 205 199 194 191 191 194 194 193 194 195 196 193 190 188 189 190 190 190 189 189 189 189 190 192 194 195 195 196 198 200 202 203 204 204 206 207 210 212 213 214 215 213 211 211 213 216 218 219 220 220 219 217 215 217 220 223 227 230 234 235 232 233 237 244 252 255 248 240 235 231 232 237
262 183 120 120 187 161 155 183 177 173 150 353 214 210 210 212 270 341 331 310 298 257 237 218 211 204 190 189 192 192 196 195 194 195 196 196 194 192 190 189 191 191 191 190 190 190 190 191 193 194 195 195 196 198 199 202 204 205 205 206 208 209 212 213 214 216 216 215 214 215 217 220 221 222 223 223 221 219 220 222 225 228 231 234 235 232 233 235 240 250 251 243 239 238 237 237 239
258 43 52 279 262 141 117 232 239 89 93 272 211 221 294 292 343 2 359 350 344 329 286 238 223 201 186 193 195 194 196 194 195 196 195 195 193 193 192 190 191 191 192 192 192 191 191 192 193 194 196 196 197 199 200 202 203 205 206 207 208 209 211 213 214 215 217 218 219 219 220 222 223 224 224 224 224 223 223 225 227 230 232 235 235 233 232 233 237 244 245 240 242 242 239 238 239
80 54 296 292 268 138 111 147 356 48 114 276 311 147 338 354 333 341 355 356 343 336 323 276 244 203 194 203 198 197 198 194 196 194 192 194 193 193 194 192 192 193 193 194 193 193 193 193 194 194 195 197 198 199 200 202 203 204 206 208 208 210 211 213 214 216 218 220 220 221 221 223 224 225 225 225 226 226 226 228 229 231 234 236 237 234 229 230 234 241 244 244 246 244 239 237 239
78 171 297 5 121 186 11 121 144 74 161 269 319 55 40 22 331 329 347 349 335 330 330 313 271 211 204 210 203 200 199 196 196 194 192 194 193 193 193 193 193 193 194 195 194 193 193 195 195 196 197 198 199 200 201 202 204 204 206 208 209 210 211 212 214 217 219 220 222 222 221 223 225 226 226 227 226 226 228 230 230 232 235 237 239 236 229 229 234 241 244 244 244 243 239 238 240
17 44 9 14 121 179 307 181 157 132 164 215 299 15 29 293 294 319 326 334 339 335 332 326 298 234 210 209 204 198 196 196 195 195 195 195 194 193 193 193 193 192 194 195 194 194 194 195 196 197 198 199 199 201 202 203 204 205 207 208 210 211 212 213 214 217 219 221 222 223 223 223 224 226 227 227 227 227 228 230 231 233 235 237 239 238 233 233 236 240 244 244 244 244 242 241 242
12 33 28 6 345 349 289 257 107 118 145 172 143 62 292 254 279 326 320 333 347 343 337 333 320 273 223 210 202 194 194 198 197 195 195 195 194 193 193 193 193 191 192 193 194 195 195 195 197 198 199 199 200 201 202 203 205 206 207 208 210 211 212 214 215 216 219 221 223 223 223 223 225 226 228 227 228 228 228 229 230 231 233 235 238 239 238 238 239 241 243 244 245 246 246 245 245
64 57 32 10 358 20 41 326 343 27 77 172 152 136 259 257 341 337 326 348 355 354 353 345 341 329 264 220 204 194 194 195 196 195 193 193 193 191 191 191 191 190 190 191 193 195 195 196 197 198 199 200 201 202 203 204 205 207 208 209 210 211 212 214 215 217 219 220 222 223 223 223 225 227 228 229 229 229 228 228 228 229 231 233 236 239 240 241 242 243 244 244 246 248 249 250 249